Yankton, SD

12:29 AM CDT on September 28, 2016 (GMT -0500)
Gurney Municipal

Weather History for KYKN - July, 2013

Change the Weather History Date:

Thursday, July 4, 2013

  Actual Average Record
Temperature  
Mean Temperature 73 °F -  
Max Temperature 87 °F 86 °F 106 °F (1990)
Min Temperature 59 °F 61 °F 45 °F (1967)
Cooling Degree Days 8    
Growing Degree Days 23 (Base 50)    
Moisture  
Dew Point 56 °F    
Average Humidity 52    
Maximum Humidity 82    
Minimum Humidity 33    
Precipitation  
Precipitation 0.00 in - - ()
Sea Level Pressure  
Sea Level Pressure 29.87 in    
Wind  
Wind Speed 10 mph (SSE)    
Max Wind Speed 23 mph    
Max Gust Speed 29 mph    
Visibility 10 miles    
Events      
Averages and records for this station are not official NWS values.
T = Trace of Precipitation, MM = Missing Value Source: NWS Daily Summary

Daily Weather History Graph

Daily Weather History Graph

Search for Another Location

Airport or City:

Trip Planner

Search our weather history database for the weather conditions in past years. The results will help you decide how hot, cold, wet, or windy it might be!

Date:

Astronomy

Jul. 04, 2013 Rise Set
Actual Time 5:56 AM CDT 9:11 PM CDT
Civil Twilight 5:21 AM CDT 9:46 PM CDT
Nautical Twilight 4:36 AM CDT 10:31 PM CDT
Astronomical Twilight 3:41 AM CDT 11:26 PM CDT
Moon 3:16 AM CDT (7/4) 6:15 PM CDT (7/4)
Length of Visible Light 16h 24m
Length of Day
15h 15m
Waning Crescent, 11% of the Moon is Illuminated
Jul 4
Waning Crescent
Jul 8
New
Jul 15
First Quarter
Jul 22
Full
Jul 29
Last Quarter

Hourly Weather History & Observations

Time (CDT) Temp. Heat Index Dew Point Humidity Pressure Visibility Wind Dir Wind Speed Gust Speed Precip Events Conditions
12:15 AM 69.8 °F - 57.2 °F 64% 29.93 in 10.0 mi SSE 9.2 mph - N/A   Clear
12:35 AM 68.0 °F - 55.4 °F 64% 29.93 in 10.0 mi SSE 6.9 mph - N/A   Clear
12:55 AM 69.8 °F - 57.2 °F 64% 29.92 in 10.0 mi South 9.2 mph - N/A   Clear
1:15 AM 69.8 °F - 55.4 °F 60% 29.93 in 10.0 mi South 5.8 mph - N/A   Clear
1:35 AM 68.0 °F - 55.4 °F 64% 29.92 in 10.0 mi South 6.9 mph - N/A   Clear
1:55 AM 69.8 °F - 55.4 °F 60% 29.92 in 10.0 mi South 8.1 mph - N/A   Clear
2:15 AM 68.0 °F - 55.4 °F 64% 29.92 in 10.0 mi South 5.8 mph - N/A   Clear
2:35 AM 66.2 °F - 55.4 °F 68% 29.92 in 5.0 mi SE 4.6 mph - N/A   Clear
2:55 AM 66.2 °F - 55.4 °F 68% 29.92 in 10.0 mi SE 5.8 mph - N/A   Clear
3:15 AM 64.4 °F - 55.4 °F 73% 29.92 in 10.0 mi SSE 6.9 mph - N/A   Clear
3:35 AM 64.4 °F - 55.4 °F 73% 29.92 in 10.0 mi SSE 5.8 mph - N/A   Clear
3:55 AM 64.4 °F - 55.4 °F 73% 29.92 in 10.0 mi ESE 3.5 mph - N/A   Clear
4:15 AM 62.6 °F - 55.4 °F 77% 29.91 in 10.0 mi ESE 5.8 mph - N/A   Clear
4:35 AM 62.6 °F - 55.4 °F 77% 29.92 in 10.0 mi East 4.6 mph - N/A   Clear
4:55 AM 60.8 °F - 55.4 °F 82% 29.92 in 10.0 mi ESE 3.5 mph - N/A   Clear
5:15 AM 60.8 °F - 55.4 °F 82% 29.92 in 10.0 mi ENE 3.5 mph - N/A   Clear
5:35 AM 60.8 °F - 55.4 °F 82% 29.91 in 10.0 mi East 5.8 mph - N/A   Clear
5:55 AM 60.8 °F - 55.4 °F 82% 29.91 in 10.0 mi ESE 5.8 mph - N/A   Clear
6:15 AM 59.0 °F - 53.6 °F 82% 29.92 in 8.0 mi Calm Calm - N/A   Clear
6:35 AM 60.8 °F - 55.4 °F 82% 29.91 in 10.0 mi East 4.6 mph - N/A   Clear
6:55 AM 60.8 °F - 55.4 °F 82% 29.92 in 10.0 mi East 5.8 mph - N/A   Clear
7:15 AM 62.6 °F - 55.4 °F 77% 29.91 in 10.0 mi East 4.6 mph - N/A   Clear
7:35 AM 62.6 °F - 57.2 °F 82% 29.91 in 10.0 mi East 5.8 mph - N/A   Clear
7:55 AM 64.4 °F - 57.2 °F 77% 29.91 in 10.0 mi East 4.6 mph - N/A   Clear
8:15 AM 66.2 °F - 57.2 °F 73% 29.91 in 10.0 mi East 4.6 mph - N/A   Clear
8:35 AM 68.0 °F - 57.2 °F 68% 29.91 in 10.0 mi Calm Calm - N/A   Clear
8:55 AM 71.6 °F - 59.0 °F 64% 29.91 in 10.0 mi East 6.9 mph - N/A   Clear
9:15 AM 73.4 °F - 57.2 °F 57% 29.91 in 10.0 mi ESE 6.9 mph - N/A   Clear
9:35 AM 75.2 °F - 55.4 °F 50% 29.91 in 10.0 mi South 15.0 mph 19.6 mph N/A   Clear
9:55 AM 75.2 °F - 55.4 °F 50% 29.89 in 10.0 mi South 19.6 mph - N/A   Clear
10:15 AM 77.0 °F - 55.4 °F 47% 29.88 in 10.0 mi South 17.3 mph 24.2 mph N/A   Clear
10:35 AM 78.8 °F - 55.4 °F 44% 29.88 in 10.0 mi South 19.6 mph 26.5 mph N/A   Clear
10:55 AM 80.6 °F 80.5 °F 55.4 °F 42% 29.88 in 10.0 mi South 19.6 mph 26.5 mph N/A   Clear
11:15 AM 80.6 °F 80.5 °F 55.4 °F 42% 29.87 in 10.0 mi South 16.1 mph - N/A   Clear
11:35 AM 82.4 °F 82.0 °F 57.2 °F 42% 29.87 in 10.0 mi South 17.3 mph 26.5 mph N/A   Clear
11:55 AM 82.4 °F 81.7 °F 55.4 °F 39% 29.86 in 10.0 mi South 20.7 mph 25.3 mph N/A   Clear
12:15 PM 84.2 °F 83.5 °F 57.2 °F 40% 29.86 in 10.0 mi South 19.6 mph 23.0 mph N/A   Clear
12:35 PM 84.2 °F 83.0 °F 55.4 °F 37% 29.86 in 10.0 mi South 23.0 mph 27.6 mph N/A   Clear
12:55 PM 84.2 °F 83.0 °F 55.4 °F 37% 29.85 in 10.0 mi South 21.9 mph 28.8 mph N/A   Clear
1:15 PM 86.0 °F 84.5 °F 55.4 °F 35% 29.85 in 10.0 mi South 18.4 mph 25.3 mph N/A   Clear
1:35 PM 87.8 °F 86.1 °F 55.4 °F 33% 29.84 in 10.0 mi South 19.6 mph 27.6 mph N/A   Clear
1:55 PM 87.8 °F 86.1 °F 55.4 °F 33% 29.84 in 10.0 mi South 21.9 mph 27.6 mph N/A   Clear
2:15 PM 87.8 °F 86.1 °F 55.4 °F 33% 29.84 in 10.0 mi South 19.6 mph 28.8 mph N/A   Clear
2:35 PM 87.8 °F 86.1 °F 55.4 °F 33% 29.84 in 10.0 mi SSE 21.9 mph 27.6 mph N/A   Clear
2:55 PM 87.8 °F 86.1 °F 55.4 °F 33% 29.84 in 10.0 mi South 19.6 mph 27.6 mph N/A   Clear
3:15 PM 87.8 °F 86.5 °F 57.2 °F 35% 29.83 in 10.0 mi South 15.0 mph 24.2 mph N/A   Clear
3:35 PM 87.8 °F 86.1 °F 55.4 °F 33% 29.83 in 10.0 mi South 21.9 mph - N/A   Clear
3:55 PM 87.8 °F 86.1 °F 55.4 °F 33% 29.83 in 10.0 mi South 20.7 mph 26.5 mph N/A   Clear
4:15 PM 87.8 °F 86.1 °F 55.4 °F 33% 29.83 in 10.0 mi South 18.4 mph 25.3 mph N/A   Clear
4:35 PM 87.8 °F 86.1 °F 55.4 °F 33% 29.82 in 10.0 mi South 19.6 mph 25.3 mph N/A   Clear
4:55 PM 87.8 °F 86.5 °F 57.2 °F 35% 29.82 in 10.0 mi South 15.0 mph 27.6 mph N/A   Clear
5:15 PM 87.8 °F 86.5 °F 57.2 °F 35% 29.82 in 10.0 mi South 18.4 mph 28.8 mph N/A   Clear
5:35 PM 87.8 °F 86.5 °F 57.2 °F 35% 29.82 in 10.0 mi South 16.1 mph 25.3 mph N/A   Clear
5:55 PM 87.8 °F 86.5 °F 57.2 °F 35% 29.82 in 10.0 mi South 20.7 mph 27.6 mph N/A   Clear
6:15 PM 87.8 °F 86.5 °F 57.2 °F 35% 29.81 in 10.0 mi South 16.1 mph 27.6 mph N/A   Clear
6:35 PM 87.8 °F 87.1 °F 59.0 °F 38% 29.80 in 10.0 mi South 15.0 mph 20.7 mph N/A   Clear
6:55 PM 87.8 °F 87.1 °F 59.0 °F 38% 29.80 in 10.0 mi South 17.3 mph 24.2 mph N/A   Clear
7:15 PM 86.0 °F 85.4 °F 59.0 °F 40% 29.80 in 10.0 mi SSE 17.3 mph 23.0 mph N/A   Clear
7:35 PM 84.2 °F 83.5 °F 57.2 °F 40% 29.80 in 10.0 mi South 15.0 mph 23.0 mph N/A   Clear
7:55 PM 84.2 °F 83.5 °F 57.2 °F 40% 29.80 in 10.0 mi South 15.0 mph 20.7 mph N/A   Clear
8:15 PM 82.4 °F 82.0 °F 57.2 °F 42% 29.80 in 10.0 mi SSE 11.5 mph - N/A   Clear
8:35 PM 80.6 °F 80.8 °F 57.2 °F 45% 29.80 in 10.0 mi SSE 11.5 mph - N/A   Mostly Cloudy
8:55 PM 80.6 °F 80.8 °F 57.2 °F 45% 29.81 in 10.0 mi SSE 11.5 mph - N/A   Scattered Clouds
9:15 PM 80.6 °F 80.8 °F 57.2 °F 45% 29.81 in 10.0 mi SSE 15.0 mph 19.6 mph N/A   Clear
9:35 PM 78.8 °F - 57.2 °F 47% 29.81 in 10.0 mi SSE 15.0 mph - N/A   Partly Cloudy
9:55 PM 78.8 °F - 55.4 °F 44% 29.82 in 10.0 mi SSE 13.8 mph 19.6 mph N/A   Mostly Cloudy
10:15 PM 78.8 °F - 55.4 °F 44% 29.83 in 10.0 mi SSE 9.2 mph - N/A   Mostly Cloudy
10:35 PM 78.8 °F - 55.4 °F 44% 29.84 in 10.0 mi South 10.4 mph 18.4 mph N/A   Partly Cloudy
10:55 PM 77.0 °F - 55.4 °F 47% 29.84 in 10.0 mi South 13.8 mph - N/A   Scattered Clouds
11:15 PM 78.8 °F - 53.6 °F 42% 29.84 in 10.0 mi South 11.5 mph - N/A   Partly Cloudy
11:35 PM 77.0 °F - 53.6 °F 44% 29.84 in 10.0 mi SSE 9.2 mph - N/A   Clear
11:55 PM 75.2 °F - 53.6 °F 47% 29.85 in 10.0 mi SE 9.2 mph - N/A   Clear